This is the latest recevied weather packets stored in our database for station/object EA3GKP-10. If no packets are shown the sender has not sent any weather packets the latest 10 day(s).
| Time | Temp. | Humidity | Pressure | Rain* | Wind** | Luminosity | Snow |
|---|---|---|---|---|---|---|---|
| 1777987691 | 21.67° C | - | - | 0 mm | 1.79 m/s, 72° | - | - |
| 1777987080 | 21.67° C | - | - | 0 mm | 1.34 m/s, 113° | - | - |
| 1777986775 | 21.11° C | - | - | 0 mm | 1.34 m/s, 38° | - | - |
| 1777986469 | 21.67° C | - | - | 0 mm | 1.34 m/s, 128° | - | - |
| 1777986162 | 22.78° C | - | - | 0 mm | 1.34 m/s, 117° | - | - |
| 1777985856 | 21.67° C | - | - | 0 mm | 2.24 m/s, 60° | - | - |
| 1777985553 | 21.67° C | - | - | 0 mm | 1.79 m/s, 25° | - | - |
| 1777985251 | 21.67° C | - | - | 0 mm | 1.34 m/s, 70° | - | - |
| 1777984948 | 20.56° C | - | - | 0 mm | 1.34 m/s, 111° | - | - |
| 1777984645 | 20.56° C | - | - | 0 mm | 0.45 m/s, 359° | - | - |
| 1777984341 | 20.56° C | - | - | 0 mm | 2.68 m/s, 359° | - | - |
| 1777984037 | 21.11° C | - | - | 0 mm | 1.79 m/s, 96° | - | - |
| 1777983733 | 20° C | - | - | 0 mm | 1.34 m/s, 131° | - | - |
| 1777983429 | 21.11° C | - | - | 0 mm | 2.24 m/s, 97° | - | - |
| 1777983124 | 21.11° C | - | - | 0 mm | 1.79 m/s, 69° | - | - |
| 1777982820 | 20° C | - | - | 0 mm | 3.13 m/s, 359° | - | - |
| 1777982517 | 20.56° C | - | - | 0 mm | 0.45 m/s, 359° | - | - |
| 1777982213 | 20.56° C | - | - | 0 mm | 1.34 m/s, 359° | - | - |
| 1777981909 | 20.56° C | - | - | 0 mm | 2.24 m/s, 359° | - | - |
| 1777981605 | 21.67° C | - | - | 0 mm | 1.34 m/s, 359° | - | - |
| 1777981299 | 20° C | - | - | 0 mm | 1.79 m/s, 359° | - | - |
| 1777980993 | 21.11° C | - | - | 0 mm | 2.68 m/s, 359° | - | - |
| 1777980687 | 20.56° C | - | - | 0 mm | 1.34 m/s, 127° | - | - |
| 1777980383 | 20° C | - | - | 0 mm | 2.68 m/s, 115° | - | - |
| 1777980076 | 21.11° C | - | - | 0 mm | 2.24 m/s, 128° | - | - |
* Rain latest hour (hover to see other rain measurements)
** Current wind speed in m/s (hover to see current wind gust speed)